Starlink 30503

operational
NORAD ID: 57975 Int'l Des: 2023-151 Owner: SPXS Country: US Constellation: starlink
LEOCIRCULAR

Starlink 30503について

説明を読み込み中...

リアルタイム位置

3D地球を読み込み中...

次回通過

高度履歴

Altitude vs Time

uPlot chart will show altitude changes over time

軌道要素

1 57975U 23151M 25303.48831780 .00000090 00000-0 21721-4 0 9993
2 57975 43.0053 326.6037 0001288 273.9677 86.1018 15.02535320116140
Epoch: Oct 30, 2025 • Age: 27 hours

現在のステータス

高度 565.2 km
速度 7.58 km/s
衛星直下点 -26.10°S, 81.36°W
打ち上げ日 Sep 30, 2023
運用期間 2 years
タイプ internet

技術仕様

分類 Payload
質量 730.00 kg
乾燥質量 700.00 kg
総質量 730.00 kg
長さ 0.30 m
直径 4.10 m
スパン 29.00 m
形状 Box + pan
製造者 SPXS
バスタイプ Starlink V2M
フェーズステータス In Orbit
所有者/国 SPXS/US

大規模コンステレーション

Loading constellations...